Regional Weather Roundup
Issued by NWS

Home | Current Version | Previous Version | Text Only | Print | Product List | Glossary Off
Versions: 1 2 3 4 5 6 7 8 9 10 11 12 13 14 15 16 17 18 19 20 21 22 23 24 25 26 27 28 29 30 31 32 33 34 35 36 37 38 39 40 41 42 43 44 45 46 47 48 49 50

313
ASUS45 KCYS 261610
RWRWY

WYOMING REGIONAL WEATHER ROUNDUP
NATIONAL WEATHER SERVICE CHEYENNE WY
1000 AM MDT THU MAY 26 2016

NOTE:  "FAIR" INDICATES FEW OR NO CLOUDS BELOW 12,000 FEET
WITH NO SIGNIFICANT WEATHER AND/OR OBSTRUCTIONS TO VISIBILITY.

WYZ001-261700-
YELLOWSTONE NATIONAL PARK

CITY           SKY/WX    TMP DP  RH WIND       PRES   REMARKS
LK YELLOWSTONE   N/A     40  33  76 VRB3      30.11F
W YELLOWSTONE  NOT AVBL

$$
WYZ002>013-054>058-071-098>099-261700-
NORTHERN WYOMING

CITY           SKY/WX    TMP DP  RH WIND       PRES   REMARKS
JACKSON        MOSUNNY   46  39  76 CALM      30.08
CODY           PTSUNNY   57  39  51 NE7       29.98F
GREYBULL       PTSUNNY   53  46  77 VRB5      29.98S
WORLAND        FAIR      56  44  64 NE3       29.99S
SHERIDAN       LGT RAIN  50  44  80 W8        29.97R
BUFFALO          N/A    N/A N/A N/A MISG      29.99R
GILLETTE       FAIR      57  41  55 NW10      29.94F
HULETT         FAIR      55  43  62 SW12      29.94F
NEWCASTLE      FAIR      57  36  44 NW9       29.97R

$$
WYZ014>020-022>026-101>103-261700-
CENTRAL WYOMING

CITY           SKY/WX    TMP DP  RH WIND       PRES   REMARKS
BIG PINEY      FAIR      52  34  50 NE9       30.07F
PINEDALE       FAIR      50  32  50 NW9       30.06F
DUBOIS         FAIR      50  27  40 NW9       30.04F
LANDER         FAIR      56  38  50 NE10      30.00S
RIVERTON       FAIR      56  38  50 VRB3      30.02S
CASPER         PTSUNNY   56  38  50 VRB7      30.00F
DOUGLAS          N/A    N/A N/A N/A MISG      29.99F

$$
WYZ021-027>030-104>119-261700-
SOUTHERN WYOMING

CITY           SKY/WX    TMP DP  RH WIND       PRES   REMARKS
EVANSTON         N/A     48  38  68 MISG      30.08F
KEMMERER         N/A     48  32  53 SW3       30.09S
FORT BRIDGER   SUNNY     50  37  62 CALM      30.11F
ROCK SPRINGS   FAIR      50  36  58 N5        30.06S
DIXON          FAIR      55  37  50 CALM      30.04F
RAWLINS        FAIR      52  36  54 VRB5      30.05F
SARATOGA       FAIR      52  34  50 NW10      30.06F
LARAMIE        FAIR      53  33  46 N6        30.02F
CHEYENNE       FAIR      59  35  40 SE5       29.99F
TORRINGTON     FAIR      65  40  39 W8        29.93F
PINE BLUFFS    FAIR      61  37  41 E3        29.98F

$$




USA.gov is the U.S. government's official web portal to all federal, state and local government web resources and services.